Regional Weather Roundup
Issued by NWS Goodland, KS

Home | Current Version | Previous Version | Graphics & Text | Print | Product List | Glossary On
Versions: 1 2 3 4 5 6 7 8 9 10 11 12 13 14 15 16 17 18 19 20 21 22 23 24 25 26 27 28 29 30 31 32 33 34 35 36 37 38 39 40 41 42 43 44 45 46 47 48 49 50
000
ASUS43 KGLD 210559
RWRGLD

GOODLAND FORECAST AREA HOURLY WEATHER ROUNDUP
NATIONAL WEATHER SERVICE GOODLAND KS
1200 AM MDT THU SEP 21 2017

...OFFICIAL OBSERVATIONS...

CITY           SKY/WX    TMP DP  RH WIND       PRES   REMARKS
GOODLAND KS    CLEAR     53  36  52 S10       29.88F
HILL CITY KS   CLEAR     56  42  59 NE5       29.88S
IMPERIAL NEB   CLEAR     52  37  56 SE9       29.87F
MCCOOK NEB     CLEAR     57  40  52 E6        29.87F
AKRON CO       CLEAR     56  31  38 SE14      29.85F
BURLINGTON CO  CLEAR     56  38  50 S15       29.88F
LIMON CO       CLEAR     52  36  54 SE5       29.92S
$$

...UNOFFICIAL OBSERVATIONS...

CITY           SKY/WX    TMP DP  RH WIND       PRES   REMARKS
LENORA KS        N/A     59  32  36 MISG        N/A
NORTON KS      CLEAR     54  37  54 E6        29.87S
SHARON SPRINGS   N/A     54  39  57 S8          N/A
TRENTON NEB      N/A     55  32  41 SE7         N/A
KIT CARSON CO    N/A     61  39  44 MISG        N/A
YUMA CO        FAIR      50  34  53 SE6       29.85F
$$




USA.gov is the U.S. government's official web portal to all federal, state and local government web resources and services.